TimeEDT,TemperatureF,Dew PointF,Humidity,Sea Level PressureIn,VisibilityMPH,Wind Direction,Wind SpeedMPH,Gust SpeedMPH,PrecipitationIn,Events,Conditions,WindDirDegrees,DateUTC
12:58 AM,49.6,43.7,80,30.22,10.0,North,5.8,-,N/A,,Clear,360,2013-04-22 04:58:00
1:58 AM,49.3,42.6,78,30.21,10.0,North,6.9,-,N/A,,Clear,360,2013-04-22 05:58:00
2:58 AM,48.6,43.7,83,30.19,10.0,NNE,8.1,-,N/A,,Scattered Clouds,30,2013-04-22 06:58:00
3:18 AM,50.0,44.6,82,30.18,10.0,NNE,4.6,-,N/A,,Mostly Cloudy,20,2013-04-22 07:18:00
3:58 AM,53.2,44.2,72,30.18,10.0,NNE,6.9,-,N/A,,Scattered Clouds,30,2013-04-22 07:58:00
4:58 AM,51.1,44.2,77,30.19,10.0,NNE,8.1,-,N/A,,Mostly Cloudy,20,2013-04-22 08:58:00
5:58 AM,52.9,45.1,75,30.20,10.0,NE,11.5,-,N/A,,Scattered Clouds,40,2013-04-22 09:58:00
6:58 AM,52.3,44.6,75,30.22,10.0,NE,8.1,-,N/A,,Partly Cloudy,40,2013-04-22 10:58:00
7:55 AM,53.6,44.6,72,30.22,10.0,NE,11.5,-,N/A,,Mostly Cloudy,40,2013-04-22 11:55:00
7:58 AM,54.0,44.6,71,30.23,10.0,NE,8.1,-,N/A,,Mostly Cloudy,50,2013-04-22 11:58:00
8:58 AM,56.8,44.8,64,30.24,10.0,ENE,11.5,-,N/A,,Overcast,60,2013-04-22 12:58:00
9:03 AM,57.2,44.6,63,30.23,10.0,NE,9.2,18.4,N/A,,Mostly Cloudy,50,2013-04-22 13:03:00
9:18 AM,57.2,44.6,63,30.23,10.0,ENE,9.2,17.3,N/A,,Mostly Cloudy,60,2013-04-22 13:18:00
9:58 AM,59.2,45.0,59,30.25,10.0,East,11.5,-,N/A,,Overcast,80,2013-04-22 13:58:00
10:38 AM,60.8,44.6,55,30.24,10.0,East,8.1,-,N/A,,Mostly Cloudy,80,2013-04-22 14:38:00
10:58 AM,63.3,45.3,52,30.25,10.0,ENE,15.0,24.2,N/A,,Mostly Cloudy,70,2013-04-22 14:58:00
11:58 AM,66.7,46.4,48,30.24,10.0,ENE,15.0,18.4,N/A,,Clear,60,2013-04-22 15:58:00
12:58 PM,69.1,48.2,47,30.21,10.0,ESE,9.2,19.6,N/A,,Clear,110,2013-04-22 16:58:00
1:58 PM,71.4,49.3,45,30.19,10.0,NE,8.1,19.6,N/A,,Partly Cloudy,50,2013-04-22 17:58:00
2:58 PM,72.3,49.8,45,30.17,10.0,East,10.4,-,N/A,,Scattered Clouds,80,2013-04-22 18:58:00
3:58 PM,73.8,49.3,42,30.14,10.0,NNE,8.1,-,N/A,,Partly Cloudy,30,2013-04-22 19:58:00
4:27 PM,75.2,50.0,41,30.12,10.0,ENE,15.0,21.9,N/A,,Mostly Cloudy,70,2013-04-22 20:27:00
4:58 PM,73.6,50.4,44,30.12,10.0,ENE,8.1,-,N/A,,Mostly Cloudy,70,2013-04-22 20:58:00
5:58 PM,75.2,50.7,42,30.11,10.0,East,11.5,-,N/A,,Partly Cloudy,100,2013-04-22 21:58:00
6:58 PM,73.4,50.4,44,30.11,10.0,East,6.9,-,N/A,,Clear,100,2013-04-22 22:58:00
7:58 PM,71.2,49.6,46,30.12,10.0,East,8.1,-,N/A,,Mostly Cloudy,90,2013-04-22 23:58:00
8:58 PM,62.6,52.2,69,30.14,10.0,SE,2.3,-,N/A,,Mostly Cloudy,140,2013-04-23 00:58:00
9:38 PM,60.8,55.4,82,30.14,10.0,South,3.5,-,N/A,,Overcast,170,2013-04-23 01:38:00
9:58 PM,62.2,52.9,71,30.15,10.0,SSE,2.3,-,N/A,,Overcast,160,2013-04-23 01:58:00
10:43 PM,60.8,53.6,77,30.15,10.0,SSE,2.3,-,N/A,,Overcast,150,2013-04-23 02:43:00
10:48 PM,60.8,53.6,77,30.15,10.0,South,2.3,-,N/A,,Overcast,170,2013-04-23 02:48:00
10:53 PM,59.0,53.6,82,30.15,10.0,SSW,2.3,-,N/A,,Overcast,200,2013-04-23 02:53:00
10:58 PM,58.8,53.2,82,30.16,10.0,SSW,1.2,-,N/A,,Overcast,210,2013-04-23 02:58:00
11:18 PM,59.0,53.6,82,30.15,10.0,Calm,Calm,-,N/A,Rain,Light Rain,0,2013-04-23 03:18:00
11:21 PM,59.0,53.6,82,30.15,10.0,Calm,Calm,-,N/A,,Scattered Clouds,10,2013-04-23 03:21:00
11:36 PM,57.2,53.6,88,30.15,10.0,Calm,Calm,-,N/A,,Mostly Cloudy,360,2013-04-23 03:36:00
11:46 PM,55.4,53.6,94,30.15,10.0,Calm,Calm,-,N/A,,Overcast,0,2013-04-23 03:46:00
11:58 PM,56.8,52.3,85,30.16,10.0,Variable,1.2,-,0.00,,Overcast,0,2013-04-23 03:58:00